Location: Home
(42.5358°N, 72.7383°W)
Time: 06:41:03
(UTC-05:00)

Courier 1B - Pass Details

Date: 06 December 2021
Orbit: 962 x 1209 km, 28.3° (Epoch: 25 January)

Event Time Altitude Azimuth Distance (km) Brightness Sun altitude
Rises 19:41:13 0° 255° (WSW) 3,949 11.6 -36.7°
Reaches altitude 10° 19:45:16 10° 236° (SW) 2,936 10.5 -37.4°
Maximum altitude 19:49:19 16° 201° (SSW) 2,465 9.7 -38.2°
Enters shadow 19:49:25 16° 200° (SSW) 2,464 9.7 -38.2°
Drops below altitude 10° 19:53:14 10° 166° (SSE) 2,826 - -38.9°
Sets 19:57:02 0° 145° (SE) 3,729 - -39.6°
